Weather History for KBKS - July, 2013

Change the Weather History Date:

Friday, July 26, 2013

  Actual Average (KNQI) Record (KNQI)
Temperature  
Mean Temperature 94 °F -  
Max Temperature 102 °F 94 °F 100 °F (1998)
Min Temperature 84 °F 74 °F 73 °F (2004)
Cooling Degree Days 28    
Growing Degree Days 44 (Base 50)    
Moisture  
Dew Point 69 °F    
Average Humidity 46    
Maximum Humidity 70    
Minimum Humidity 29    
Precipitation  
Precipitation 0.00 in - - ()
Sea Level Pressure  
Sea Level Pressure 29.90 in    
Wind  
Wind Speed 12 mph (SE)    
Max Wind Speed 18 mph    
Max Gust Speed 25 mph    
Visibility 10 miles    
Events      
Averages and records for this station are not official NWS values.
T = Trace of Precipitation, MM = Missing Value Source: NWS Daily Summary

Daily Weather History Graph

Daily Weather History Graph

Search for Another Location

Airport or City:

Trip Planner

Search our weather history database for the weather conditions in past years. The results will help you decide how hot, cold, wet, or windy it might be!

Date:

Astronomy

Jul. 26, 2013 Rise Set
Actual Time 6:53 AM CDT 8:24 PM CDT
Civil Twilight 6:27 AM CDT 8:49 PM CDT
Nautical Twilight 5:57 AM CDT 9:19 PM CDT
Astronomical Twilight 5:25 AM CDT 9:51 PM CDT
Moon 11:12 PM CDT (7/26) 11:00 AM CDT (7/26)
Length of Visible Light 14h 21m
Length of Day
13h 30m
Waning Gibbous, 80% of the Moon is Illuminated
Jul 26
Waning Gibbous
Jul 29
Last Quarter
Aug 6
New
Aug 14
First Quarter
Aug 20
Full

Hourly Weather History & Observations

Time (CDT) Temp. Heat Index Dew Point Humidity Pressure Visibility Wind Dir Wind Speed Gust Speed Precip Events Conditions
1:55 PM 98.4 °F 101.3 °F 65.1 °F 33% 29.94 in 10.0 mi SSE 12.7 mph 16.1 mph N/A   Clear
2:15 PM 99.7 °F 103.6 °F 65.7 °F 33% 29.93 in 10.0 mi South 11.5 mph 16.1 mph N/A   Clear
2:35 PM 100.0 °F 104.2 °F 66.2 °F 33% 29.93 in 10.0 mi SSE 8.1 mph - N/A   Clear
2:55 PM 101.3 °F 105.3 °F 65.3 °F 31% 29.92 in 10.0 mi ESE 12.7 mph 18.4 mph N/A   Clear
3:15 PM 101.5 °F 104.9 °F 65.1 °F 30% 29.91 in 10.0 mi ESE 11.5 mph 16.1 mph N/A   Clear
3:35 PM 101.7 °F 105.2 °F 64.6 °F 30% 29.90 in 10.0 mi SE 12.7 mph 20.7 mph N/A   Clear
3:55 PM 102.7 °F 106.5 °F 64.9 °F 29% 29.89 in 10.0 mi SSE 12.7 mph 17.3 mph N/A   Clear
4:15 PM 101.5 °F 104.9 °F 64.4 °F 30% 29.88 in 10.0 mi South 3.5 mph 8.1 mph N/A   Clear
4:35 PM 101.7 °F 105.2 °F 65.1 °F 30% 29.88 in 10.0 mi SE 12.7 mph - N/A   Clear
4:55 PM 101.7 °F 105.2 °F 64.4 °F 30% 29.87 in 10.0 mi ESE 4.6 mph 16.1 mph N/A   Clear
5:15 PM 101.1 °F 104.3 °F 64.8 °F 30% 29.87 in 10.0 mi SSE 9.2 mph - N/A   Clear
5:35 PM 102.0 °F 105.9 °F 64.8 °F 30% 29.86 in 10.0 mi SSE 13.8 mph 18.4 mph N/A   Clear
5:55 PM 100.9 °F 104.6 °F 64.9 °F 31% 29.86 in 10.0 mi SE 11.5 mph 19.6 mph N/A   Scattered Clouds
6:15 PM 99.5 °F 102.6 °F 64.9 °F 32% 29.86 in 10.0 mi SE 13.8 mph - N/A   Scattered Clouds
6:35 PM 97.5 °F 105.3 °F 70.7 °F 42% 29.85 in 10.0 mi SE 18.4 mph 23.0 mph N/A   Clear
6:55 PM 96.4 °F 104.3 °F 71.4 °F 44% 29.86 in 10.0 mi SE 12.7 mph 24.2 mph N/A   Clear
7:15 PM 95.2 °F 105.6 °F 73.6 °F 50% 29.86 in 10.0 mi ESE 16.1 mph 23.0 mph N/A   Clear
7:35 PM 93.9 °F 104.0 °F 73.8 °F 52% 29.86 in 10.0 mi ESE 15.0 mph 24.2 mph N/A   Clear
7:55 PM 92.5 °F 103.2 °F 74.5 °F 56% 29.86 in 10.0 mi SE 11.5 mph 19.6 mph N/A   Clear
8:15 PM 91.8 °F 100.9 °F 73.6 °F 55% 29.87 in 10.0 mi SE 18.4 mph 24.2 mph N/A   Clear
8:35 PM 91.4 °F 97.8 °F 71.1 °F 51% 29.88 in 10.0 mi SE 17.3 mph 25.3 mph N/A   Scattered Clouds
8:55 PM 90.3 °F 97.7 °F 72.1 °F 55% 29.88 in 10.0 mi SE 16.1 mph 21.9 mph N/A   Mostly Cloudy
9:15 PM 89.1 °F 96.5 °F 72.7 °F 58% 29.89 in 10.0 mi SE 13.8 mph - N/A   Scattered Clouds
9:35 PM 88.3 °F 96.4 °F 73.4 °F 61% 29.91 in 10.0 mi SSE 11.5 mph 23.0 mph N/A   Scattered Clouds
9:55 PM 87.6 °F 95.7 °F 73.4 °F 63% 29.91 in 10.0 mi SE 12.7 mph - N/A   Clear
10:15 PM 86.9 °F 94.5 °F 73.2 °F 64% 29.92 in 10.0 mi SSE 9.2 mph - N/A   Clear
10:35 PM 85.8 °F 93.0 °F 73.4 °F 66% 29.93 in 10.0 mi SE 8.1 mph - N/A   Clear
10:55 PM 86.0 °F 92.6 °F 72.3 °F 64% 29.94 in 10.0 mi SSE 10.4 mph 16.1 mph N/A   Clear
11:15 PM 85.5 °F 91.8 °F 72.7 °F 65% 29.95 in 10.0 mi SSE 10.4 mph - N/A   Clear
11:35 PM 85.3 °F 92.2 °F 73.4 °F 67% 29.96 in 10.0 mi SSE 13.8 mph 19.6 mph N/A   Clear
11:55 PM 84.6 °F 91.7 °F 73.9 °F 70% 29.96 in 10.0 mi SSE 11.5 mph - N/A   Clear